Year,Month,Day,Hour,Minute,Value (Times are PST for temperature in C)
2015,04,19,00,00,8.10
2015,04,19,00,01,8.10
2015,04,19,00,02,8.10
2015,04,19,00,03,8.10
2015,04,19,00,04,8.10
2015,04,19,00,05,8.00
2015,04,19,00,06,8.00
2015,04,19,00,07,8.00
2015,04,19,00,08,7.90
2015,04,19,00,09,7.90
2015,04,19,00,10,7.90
2015,04,19,00,11,7.90
2015,04,19,00,12,7.90
2015,04,19,00,13,7.90
2015,04,19,00,14,7.90
2015,04,19,00,15,7.80
2015,04,19,00,16,7.80
2015,04,19,00,17,7.80
2015,04,19,00,18,7.80
2015,04,19,00,19,7.80
2015,04,19,00,20,7.70
2015,04,19,00,21,7.70
2015,04,19,00,22,7.60
2015,04,19,00,23,7.60
2015,04,19,00,24,7.60
2015,04,19,00,25,7.50
2015,04,19,00,26,7.50
2015,04,19,00,27,7.50
2015,04,19,00,28,7.40
2015,04,19,00,29,7.40
2015,04,19,00,30,7.40
2015,04,19,00,31,7.40
2015,04,19,00,32,7.40
2015,04,19,00,33,7.40
2015,04,19,00,34,7.40
2015,04,19,00,35,7.40
2015,04,19,00,36,7.40
2015,04,19,00,37,7.40
2015,04,19,00,38,7.40
2015,04,19,00,39,7.40
2015,04,19,00,40,7.40
2015,04,19,00,41,7.40
2015,04,19,00,42,7.40
2015,04,19,00,43,7.40
2015,04,19,00,44,7.40
2015,04,19,00,45,7.40
2015,04,19,00,46,7.40
2015,04,19,00,47,7.40
2015,04,19,00,48,7.40
2015,04,19,00,49,7.40
2015,04,19,00,50,7.40
2015,04,19,00,51,7.40
2015,04,19,00,52,7.40
2015,04,19,00,53,7.40
2015,04,19,00,54,7.30
2015,04,19,00,55,7.30
2015,04,19,00,56,7.30
2015,04,19,00,57,7.30
2015,04,19,00,58,7.30
2015,04,19,00,59,7.30
2015,04,19,01,00,7.30
2015,04,19,01,01,7.30
2015,04,19,01,02,7.20
2015,04,19,01,03,7.20
2015,04,19,01,04,7.20
2015,04,19,01,05,7.20
2015,04,19,01,06,7.10
2015,04,19,01,07,7.10
2015,04,19,01,08,7.10
2015,04,19,01,09,7.10
2015,04,19,01,10,7.10
2015,04,19,01,11,7.10
2015,04,19,01,12,7.10
2015,04,19,01,13,7.10
2015,04,19,01,14,7.10
2015,04,19,01,15,7.20
2015,04,19,01,16,7.20
2015,04,19,01,17,7.20
2015,04,19,01,18,7.30
2015,04,19,01,19,7.30
2015,04,19,01,20,7.30
2015,04,19,01,21,7.40
2015,04,19,01,22,7.40
2015,04,19,01,23,7.40
2015,04,19,01,24,7.40
2015,04,19,01,25,7.30
2015,04,19,01,26,7.30
2015,04,19,01,27,7.30
2015,04,19,01,28,7.30
2015,04,19,01,29,7.30
2015,04,19,01,30,7.30
2015,04,19,01,31,7.30
2015,04,19,01,32,7.30
2015,04,19,01,33,7.30
2015,04,19,01,34,7.20
2015,04,19,01,35,7.20
2015,04,19,01,36,7.20
2015,04,19,01,37,7.10
2015,04,19,01,38,7.10
2015,04,19,01,39,7.10
2015,04,19,01,40,7.10
2015,04,19,01,41,7.10
2015,04,19,01,42,7.10
2015,04,19,01,43,7.00
2015,04,19,01,44,7.00
2015,04,19,01,45,7.00
2015,04,19,01,46,7.00
2015,04,19,01,47,6.90
2015,04,19,01,48,6.90
2015,04,19,01,49,6.90
2015,04,19,01,50,6.90
2015,04,19,01,51,6.90
2015,04,19,01,52,6.90
2015,04,19,01,53,6.90
2015,04,19,01,54,6.90
2015,04,19,01,55,6.90
2015,04,19,01,56,6.90
2015,04,19,01,57,6.90
2015,04,19,01,58,6.90
2015,04,19,01,59,6.90
2015,04,19,02,00,6.90
2015,04,19,02,01,6.90
2015,04,19,02,02,6.90
2015,04,19,02,03,6.90
2015,04,19,02,04,6.90
2015,04,19,02,05,6.90
2015,04,19,02,06,7.00
2015,04,19,02,07,7.00
2015,04,19,02,08,7.00
2015,04,19,02,09,7.10
2015,04,19,02,10,7.10
2015,04,19,02,11,7.10
2015,04,19,02,12,7.10
2015,04,19,02,13,7.10
2015,04,19,02,14,7.10
2015,04,19,02,15,7.20
2015,04,19,02,16,7.20
2015,04,19,02,17,7.20
2015,04,19,02,18,7.20
2015,04,19,02,19,7.20
2015,04,19,02,20,7.20
2015,04,19,02,21,7.20
2015,04,19,02,22,7.20
2015,04,19,02,23,7.30
2015,04,19,02,24,7.20
2015,04,19,02,25,7.20
2015,04,19,02,26,7.20
2015,04,19,02,27,7.20
2015,04,19,02,28,7.20
2015,04,19,02,29,7.20
2015,04,19,02,30,7.20
2015,04,19,02,31,7.10
2015,04,19,02,32,7.10
2015,04,19,02,33,7.10
2015,04,19,02,34,7.10
2015,04,19,02,35,7.00
2015,04,19,02,36,7.00
2015,04,19,02,37,7.00
2015,04,19,02,38,7.00
2015,04,19,02,39,7.00
2015,04,19,02,40,6.90
2015,04,19,02,41,6.90
2015,04,19,02,42,6.90
2015,04,19,02,43,6.90
2015,04,19,02,44,6.80
2015,04,19,02,45,6.80
2015,04,19,02,46,6.80
2015,04,19,02,47,6.80
2015,04,19,02,48,6.80
2015,04,19,02,49,6.80
2015,04,19,02,50,6.80
2015,04,19,02,51,6.80
2015,04,19,02,52,6.80
2015,04,19,02,53,6.80
2015,04,19,02,54,6.80
2015,04,19,02,55,6.80
2015,04,19,02,56,6.80
2015,04,19,02,57,6.80
2015,04,19,02,58,6.80
2015,04,19,02,59,6.80
2015,04,19,03,00,6.70
2015,04,19,03,01,6.70
2015,04,19,03,02,6.70
2015,04,19,03,03,6.70
2015,04,19,03,04,6.70
2015,04,19,03,05,6.60
2015,04,19,03,06,6.60
2015,04,19,03,07,6.60
2015,04,19,03,08,6.60
2015,04,19,03,09,6.50
2015,04,19,03,10,6.50
2015,04,19,03,11,6.40
2015,04,19,03,12,6.40
2015,04,19,03,13,6.30
2015,04,19,03,14,6.30
2015,04,19,03,15,6.30
2015,04,19,03,16,6.20
2015,04,19,03,17,6.20
2015,04,19,03,18,6.20
2015,04,19,03,19,6.10
2015,04,19,03,20,6.10
2015,04,19,03,21,6.10
2015,04,19,03,22,6.10
2015,04,19,03,23,6.00
2015,04,19,03,24,6.00
2015,04,19,03,25,5.90
2015,04,19,03,26,5.90
2015,04,19,03,27,5.80
2015,04,19,03,28,5.80
2015,04,19,03,29,5.80
2015,04,19,03,30,5.70
2015,04,19,03,31,5.70
2015,04,19,03,32,5.70
2015,04,19,03,33,5.70
2015,04,19,03,34,5.60
2015,04,19,03,35,5.60
2015,04,19,03,36,5.60
2015,04,19,03,37,5.60
2015,04,19,03,38,5.60
2015,04,19,03,39,5.60
2015,04,19,03,40,5.60
2015,04,19,03,41,5.60
2015,04,19,03,42,5.50
2015,04,19,03,43,5.50
2015,04,19,03,44,5.50
2015,04,19,03,45,5.50
2015,04,19,03,46,5.50
2015,04,19,03,47,5.50
2015,04,19,03,48,5.40
2015,04,19,03,49,5.40
2015,04,19,03,50,5.40
2015,04,19,03,51,5.40
2015,04,19,03,52,5.40
2015,04,19,03,53,5.30
2015,04,19,03,54,5.30
2015,04,19,03,55,5.30
2015,04,19,03,56,5.30
2015,04,19,03,57,5.30
2015,04,19,03,58,5.30
2015,04,19,03,59,5.30
2015,04,19,04,00,5.20
2015,04,19,04,01,5.20
2015,04,19,04,02,5.20
2015,04,19,04,03,5.20
2015,04,19,04,04,5.20
2015,04,19,04,05,5.20
2015,04,19,04,06,5.20
2015,04,19,04,07,5.20
2015,04,19,04,08,5.20
2015,04,19,04,09,5.20
2015,04,19,04,10,5.20
2015,04,19,04,11,5.20
2015,04,19,04,12,5.20
2015,04,19,04,13,5.20
2015,04,19,04,14,5.20
2015,04,19,04,15,5.20
2015,04,19,04,16,5.20
2015,04,19,04,17,5.20
2015,04,19,04,18,5.20
2015,04,19,04,19,5.20
2015,04,19,04,20,5.20
2015,04,19,04,21,5.20
2015,04,19,04,22,5.20
2015,04,19,04,23,5.20
2015,04,19,04,24,5.10
2015,04,19,04,25,5.10
2015,04,19,04,26,5.10
2015,04,19,04,27,5.10
2015,04,19,04,28,5.10
2015,04,19,04,29,5.10
2015,04,19,04,30,5.10
2015,04,19,04,31,5.10
2015,04,19,04,32,5.10
2015,04,19,04,33,5.10
2015,04,19,04,34,5.10
2015,04,19,04,35,5.00
2015,04,19,04,36,5.00
2015,04,19,04,37,5.00
2015,04,19,04,38,5.00
2015,04,19,04,39,5.00
2015,04,19,04,40,5.00
2015,04,19,04,41,5.00
2015,04,19,04,42,4.90
2015,04,19,04,43,4.90
2015,04,19,04,44,4.90
2015,04,19,04,45,4.90
2015,04,19,04,46,5.00
2015,04,19,04,47,5.00
2015,04,19,04,48,5.00
2015,04,19,04,49,5.00
2015,04,19,04,50,5.00
2015,04,19,04,51,5.00
2015,04,19,04,52,5.00
2015,04,19,04,53,5.00
2015,04,19,04,54,5.00
2015,04,19,04,55,5.00
2015,04,19,04,56,5.00
2015,04,19,04,57,5.00
2015,04,19,04,58,5.00
2015,04,19,04,59,5.00
2015,04,19,05,00,5.00
2015,04,19,05,01,5.00
2015,04,19,05,02,5.00
2015,04,19,05,03,5.00
2015,04,19,05,04,5.00
2015,04,19,05,05,4.90
2015,04,19,05,06,4.90
2015,04,19,05,07,4.90
2015,04,19,05,08,4.80
2015,04,19,05,09,4.80
2015,04,19,05,10,4.80
2015,04,19,05,11,4.80
2015,04,19,05,12,4.70
2015,04,19,05,13,4.70
2015,04,19,05,14,4.70
2015,04,19,05,15,4.70
2015,04,19,05,16,4.70
2015,04,19,05,17,4.70
2015,04,19,05,18,4.70
2015,04,19,05,19,4.70
2015,04,19,05,20,4.60
2015,04,19,05,21,4.60
2015,04,19,05,22,4.60
2015,04,19,05,23,4.60
2015,04,19,05,24,4.60
2015,04,19,05,25,4.60
2015,04,19,05,26,4.60
2015,04,19,05,27,4.60
2015,04,19,05,28,4.60
2015,04,19,05,29,4.60
2015,04,19,05,30,4.60
2015,04,19,05,31,4.70
2015,04,19,05,32,4.70
2015,04,19,05,33,4.70
2015,04,19,05,34,4.70
2015,04,19,05,35,4.70
2015,04,19,05,36,4.70
2015,04,19,05,37,4.70
2015,04,19,05,38,4.70
2015,04,19,05,39,4.70
2015,04,19,05,40,4.70
2015,04,19,05,41,4.70
2015,04,19,05,42,4.70
2015,04,19,05,43,4.70
2015,04,19,05,44,4.60
2015,04,19,05,45,4.60
2015,04,19,05,46,4.60
2015,04,19,05,47,4.60
2015,04,19,05,48,4.60
2015,04,19,05,49,4.60
2015,04,19,05,50,4.60
2015,04,19,05,51,4.60
2015,04,19,05,52,4.60
2015,04,19,05,53,4.60
2015,04,19,05,54,4.60
2015,04,19,05,55,4.60
2015,04,19,05,56,4.60
2015,04,19,05,57,4.60
2015,04,19,05,58,4.60
2015,04,19,05,59,4.60
2015,04,19,06,00,4.50
2015,04,19,06,01,4.50
2015,04,19,06,02,4.50
2015,04,19,06,03,4.50
2015,04,19,06,04,4.50
2015,04,19,06,05,4.40
2015,04,19,06,06,4.40
2015,04,19,06,07,4.40
2015,04,19,06,08,4.40
2015,04,19,06,09,4.40
2015,04,19,06,10,4.40
2015,04,19,06,11,4.40
2015,04,19,06,12,4.30
2015,04,19,06,13,4.30
2015,04,19,06,14,4.30
2015,04,19,06,15,4.30
2015,04,19,06,16,4.30
2015,04,19,06,17,4.30
2015,04,19,06,18,4.30
2015,04,19,06,19,4.30
2015,04,19,06,20,4.30
2015,04,19,06,21,4.30
2015,04,19,06,22,4.30
2015,04,19,06,23,4.30
2015,04,19,06,24,4.30
2015,04,19,06,25,4.30
2015,04,19,06,26,4.30
2015,04,19,06,27,4.20
2015,04,19,06,28,4.20
2015,04,19,06,29,4.20
2015,04,19,06,30,4.20
2015,04,19,06,31,4.20
2015,04,19,06,32,4.20
2015,04,19,06,33,4.20
2015,04,19,06,34,4.20
2015,04,19,06,35,4.20
2015,04,19,06,36,4.20
2015,04,19,06,37,4.20
2015,04,19,06,38,4.20
2015,04,19,06,39,4.20
2015,04,19,06,40,4.20
2015,04,19,06,41,4.20
2015,04,19,06,42,4.20
2015,04,19,06,43,4.20
2015,04,19,06,44,4.20
2015,04,19,06,45,4.20
2015,04,19,06,46,4.20
2015,04,19,06,47,4.30
2015,04,19,06,48,4.30
2015,04,19,06,49,4.30
2015,04,19,06,50,4.30
2015,04,19,06,51,4.30
2015,04,19,06,52,4.30
2015,04,19,06,53,4.30
2015,04,19,06,54,4.30
2015,04,19,06,55,4.30
2015,04,19,06,56,4.30
2015,04,19,06,57,4.40
2015,04,19,06,58,4.40
2015,04,19,06,59,4.40
2015,04,19,07,00,4.40
2015,04,19,07,01,4.50
2015,04,19,07,02,4.50
2015,04,19,07,03,4.60
2015,04,19,07,04,4.60
2015,04,19,07,05,4.60
2015,04,19,07,06,4.60
2015,04,19,07,07,4.70
2015,04,19,07,08,4.70
2015,04,19,07,09,4.70
2015,04,19,07,10,4.70
2015,04,19,07,11,4.70
2015,04,19,07,12,4.80
2015,04,19,07,13,4.80
2015,04,19,07,14,4.80
2015,04,19,07,15,4.80
2015,04,19,07,16,4.80
2015,04,19,07,17,4.90
2015,04,19,07,18,4.90
2015,04,19,07,19,4.90
2015,04,19,07,20,4.90
2015,04,19,07,21,5.00
2015,04,19,07,22,5.00
2015,04,19,07,23,5.00
2015,04,19,07,24,5.10
2015,04,19,07,25,5.10
2015,04,19,07,26,5.20
2015,04,19,07,27,5.20
2015,04,19,07,28,5.30
2015,04,19,07,29,5.30
2015,04,19,07,30,5.40
2015,04,19,07,31,5.50
2015,04,19,07,32,5.50
2015,04,19,07,33,5.60
2015,04,19,07,34,5.60
2015,04,19,07,35,5.60
2015,04,19,07,36,5.70
2015,04,19,07,37,5.70
2015,04,19,07,38,5.70
2015,04,19,07,39,5.80
2015,04,19,07,40,5.80
2015,04,19,07,41,5.80
2015,04,19,07,42,5.90
2015,04,19,07,43,6.00
2015,04,19,07,44,6.00
2015,04,19,07,45,6.10
2015,04,19,07,46,6.20
2015,04,19,07,47,6.30
2015,04,19,07,48,6.40
2015,04,19,07,49,6.50
2015,04,19,07,50,6.60
2015,04,19,07,51,6.70
2015,04,19,07,52,6.80
2015,04,19,07,53,6.80
2015,04,19,07,54,6.90
2015,04,19,07,55,7.00
2015,04,19,07,56,7.10
2015,04,19,07,57,7.10
2015,04,19,07,58,7.20
2015,04,19,07,59,7.20
2015,04,19,08,00,7.20
2015,04,19,08,01,7.30
2015,04,19,08,02,7.30
2015,04,19,08,03,7.30
2015,04,19,08,04,7.40
2015,04,19,08,05,7.40
2015,04,19,08,06,7.50
2015,04,19,08,07,7.50
2015,04,19,08,08,7.50
2015,04,19,08,09,7.60
2015,04,19,08,10,7.60
2015,04,19,08,11,7.60
2015,04,19,08,12,7.70
2015,04,19,08,13,7.70
2015,04,19,08,14,7.70
2015,04,19,08,15,7.80
2015,04,19,08,16,7.80
2015,04,19,08,17,7.80
2015,04,19,08,18,7.90
2015,04,19,08,19,7.90
2015,04,19,08,20,8.00
2015,04,19,08,21,8.00
2015,04,19,08,22,8.00
2015,04,19,08,23,8.10
2015,04,19,08,24,8.10
2015,04,19,08,25,8.10
2015,04,19,08,26,8.20
2015,04,19,08,27,8.20
2015,04,19,08,28,8.30
2015,04,19,08,29,8.30
2015,04,19,08,30,8.30
2015,04,19,08,31,8.40
2015,04,19,08,32,8.40
2015,04,19,08,33,8.50
2015,04,19,08,34,8.50
2015,04,19,08,35,8.60
2015,04,19,08,36,8.60
2015,04,19,08,37,8.70
2015,04,19,08,38,8.70
2015,04,19,08,39,8.80
2015,04,19,08,40,8.80
2015,04,19,08,41,8.80
2015,04,19,08,42,8.80
2015,04,19,08,43,8.90
2015,04,19,08,44,8.90
2015,04,19,08,45,9.00
2015,04,19,08,46,9.00
2015,04,19,08,47,9.10
2015,04,19,08,48,9.10
2015,04,19,08,49,9.20
2015,04,19,08,50,9.20
2015,04,19,08,51,9.30
2015,04,19,08,52,9.30
2015,04,19,08,53,9.30
2015,04,19,08,54,9.40
2015,04,19,08,55,9.40
2015,04,19,08,56,9.50
2015,04,19,08,57,9.50
2015,04,19,08,58,9.60
2015,04,19,08,59,9.70
2015,04,19,09,00,9.70
2015,04,19,09,01,9.80
2015,04,19,09,02,9.80
2015,04,19,09,03,9.90
2015,04,19,09,04,10.00
2015,04,19,09,05,10.00
2015,04,19,09,06,10.10
2015,04,19,09,07,10.20
2015,04,19,09,08,10.20
2015,04,19,09,09,10.30
2015,04,19,09,10,10.30
2015,04,19,09,11,10.30
2015,04,19,09,12,10.30
2015,04,19,09,13,10.30
2015,04,19,09,14,10.40
2015,04,19,09,15,10.40
2015,04,19,09,16,10.40
2015,04,19,09,17,10.50
2015,04,19,09,18,10.60
2015,04,19,09,19,10.60
2015,04,19,09,20,10.70
2015,04,19,09,21,10.70
2015,04,19,09,22,10.70
2015,04,19,09,23,10.80
2015,04,19,09,24,10.80
2015,04,19,09,25,10.80
2015,04,19,09,26,10.90
2015,04,19,09,27,10.90
2015,04,19,09,28,10.90
2015,04,19,09,29,10.90
2015,04,19,09,30,11.00
2015,04,19,09,31,11.00
2015,04,19,09,32,11.10
2015,04,19,09,33,11.10
2015,04,19,09,34,11.20
2015,04,19,09,35,11.30
2015,04,19,09,36,11.30
2015,04,19,09,37,11.30
2015,04,19,09,38,11.40
2015,04,19,09,39,11.40
2015,04,19,09,40,11.40
2015,04,19,09,41,11.40
2015,04,19,09,42,11.40
2015,04,19,09,43,11.40
2015,04,19,09,44,11.40
2015,04,19,09,45,11.50
2015,04,19,09,46,11.50
2015,04,19,09,47,11.50
2015,04,19,09,48,11.60
2015,04,19,09,49,11.60
2015,04,19,09,50,11.60
2015,04,19,09,51,11.70
2015,04,19,09,52,11.70
2015,04,19,09,53,11.80
2015,04,19,09,54,11.80
2015,04,19,09,55,11.90
2015,04,19,09,56,11.90
2015,04,19,09,57,11.90
2015,04,19,09,58,12.00
2015,04,19,09,59,12.00
2015,04,19,10,00,12.10
2015,04,19,10,01,12.10
2015,04,19,10,02,12.20
2015,04,19,10,03,12.20
2015,04,19,10,04,12.20
2015,04,19,10,05,12.20
2015,04,19,10,06,12.30
2015,04,19,10,07,12.30
2015,04,19,10,08,12.40
2015,04,19,10,09,12.40
2015,04,19,10,10,12.50
2015,04,19,10,11,12.50
2015,04,19,10,12,12.60
2015,04,19,10,13,12.60
2015,04,19,10,14,12.60
2015,04,19,10,15,12.70
2015,04,19,10,16,12.70
2015,04,19,10,17,12.70
2015,04,19,10,18,12.70
2015,04,19,10,19,12.80
2015,04,19,10,20,12.80
2015,04,19,10,21,12.80
2015,04,19,10,22,12.80
2015,04,19,10,23,12.80
2015,04,19,10,24,12.80
2015,04,19,10,25,12.80
2015,04,19,10,26,12.80
2015,04,19,10,27,12.80
2015,04,19,10,28,12.80
2015,04,19,10,29,12.90
2015,04,19,10,30,12.90
2015,04,19,10,31,13.00
2015,04,19,10,32,13.10
2015,04,19,10,33,13.10
2015,04,19,10,34,13.20
2015,04,19,10,35,13.20
2015,04,19,10,36,13.30
2015,04,19,10,37,13.30
2015,04,19,10,38,13.30
2015,04,19,10,39,13.30
2015,04,19,10,40,13.40
2015,04,19,10,41,13.40
2015,04,19,10,42,13.50
2015,04,19,10,43,13.50
2015,04,19,10,44,13.60
2015,04,19,10,45,13.60
2015,04,19,10,46,13.60
2015,04,19,10,47,13.70
2015,04,19,10,48,13.70
2015,04,19,10,49,13.70
2015,04,19,10,50,13.70
2015,04,19,10,51,13.70
2015,04,19,10,52,13.70
2015,04,19,10,53,13.80
2015,04,19,10,54,13.80
2015,04,19,10,55,13.90
2015,04,19,10,56,14.00
2015,04,19,10,57,14.00
2015,04,19,10,58,14.10
2015,04,19,10,59,14.20
2015,04,19,11,00,14.20
2015,04,19,11,01,14.30
2015,04,19,11,02,14.30
2015,04,19,11,03,14.40
2015,04,19,11,04,14.50
2015,04,19,11,05,14.50
2015,04,19,11,06,14.60
2015,04,19,11,07,14.60
2015,04,19,11,08,14.70
2015,04,19,11,09,14.70
2015,04,19,11,10,14.70
2015,04,19,11,11,14.70
2015,04,19,11,12,14.70
2015,04,19,11,13,14.70
2015,04,19,11,14,14.70
2015,04,19,11,15,14.80
2015,04,19,11,16,14.70
2015,04,19,11,17,14.70
2015,04,19,11,18,14.70
2015,04,19,11,19,14.70
2015,04,19,11,20,14.70
2015,04,19,11,21,14.70
2015,04,19,11,22,14.70
2015,04,19,11,23,14.70
2015,04,19,11,24,14.80
2015,04,19,11,25,14.80
2015,04,19,11,26,14.80
2015,04,19,11,27,14.80
2015,04,19,11,28,14.80
2015,04,19,11,29,14.80
2015,04,19,11,30,14.90
2015,04,19,11,31,14.90
2015,04,19,11,32,14.90
2015,04,19,11,33,15.00
2015,04,19,11,34,15.00
2015,04,19,11,35,14.90
2015,04,19,11,36,14.90
2015,04,19,11,37,14.90
2015,04,19,11,38,14.80
2015,04,19,11,39,14.80
2015,04,19,11,40,14.80
2015,04,19,11,41,14.80
2015,04,19,11,42,14.80
2015,04,19,11,43,14.90
2015,04,19,11,44,14.90
2015,04,19,11,45,15.00
2015,04,19,11,46,15.00
2015,04,19,11,47,15.10
2015,04,19,11,48,15.20
2015,04,19,11,49,15.20
2015,04,19,11,50,15.20
2015,04,19,11,51,15.30
2015,04,19,11,52,15.30
2015,04,19,11,53,15.30
2015,04,19,11,54,15.30
2015,04,19,11,55,15.30
2015,04,19,11,56,15.20
2015,04,19,11,57,15.20
2015,04,19,11,58,15.30
2015,04,19,11,59,15.30
2015,04,19,12,00,15.30
2015,04,19,12,01,15.30
2015,04,19,12,02,15.40
2015,04,19,12,03,15.40
2015,04,19,12,04,15.40
2015,04,19,12,05,15.40
2015,04,19,12,06,15.40
2015,04,19,12,07,15.50
2015,04,19,12,08,15.50
2015,04,19,12,09,15.60
2015,04,19,12,10,15.60
2015,04,19,12,11,15.70
2015,04,19,12,12,15.70
2015,04,19,12,13,15.80
2015,04,19,12,14,15.80
2015,04,19,12,15,15.80
2015,04,19,12,16,15.70
2015,04,19,12,17,15.70
2015,04,19,12,18,15.60
2015,04,19,12,19,15.50
2015,04,19,12,20,15.50
2015,04,19,12,21,15.40
2015,04,19,12,22,15.40
2015,04,19,12,23,15.50
2015,04,19,12,24,15.60
2015,04,19,12,25,15.60
2015,04,19,12,26,15.70
2015,04,19,12,27,15.70
2015,04,19,12,28,15.80
2015,04,19,12,29,15.80
2015,04,19,12,30,15.90
2015,04,19,12,31,16.00
2015,04,19,12,32,16.00
2015,04,19,12,33,16.00
2015,04,19,12,34,16.10
2015,04,19,12,35,16.10
2015,04,19,12,36,16.20
2015,04,19,12,37,16.20
2015,04,19,12,38,16.20
2015,04,19,12,39,16.20
2015,04,19,12,40,16.20
2015,04,19,12,41,16.20
2015,04,19,12,42,16.30
2015,04,19,12,43,16.20
2015,04,19,12,44,16.10
2015,04,19,12,45,16.00
2015,04,19,12,46,16.00
2015,04,19,12,47,16.00
2015,04,19,12,48,16.00
2015,04,19,12,49,16.00
2015,04,19,12,50,16.00
2015,04,19,12,51,15.90
2015,04,19,12,52,15.90
2015,04,19,12,53,15.80
2015,04,19,12,54,15.70
2015,04,19,12,55,15.60
2015,04,19,12,56,15.50
2015,04,19,12,57,15.40
2015,04,19,12,58,15.40
2015,04,19,12,59,15.50
2015,04,19,13,00,15.50
2015,04,19,13,01,15.60
2015,04,19,13,02,15.60
2015,04,19,13,03,15.60
2015,04,19,13,04,15.60
2015,04,19,13,05,15.70
2015,04,19,13,06,15.80
2015,04,19,13,07,15.90
2015,04,19,13,08,15.90
2015,04,19,13,09,16.00
2015,04,19,13,10,16.00
2015,04,19,13,11,16.10
2015,04,19,13,12,16.10
2015,04,19,13,13,16.10
2015,04,19,13,14,16.10
2015,04,19,13,15,16.10
2015,04,19,13,16,16.10
2015,04,19,13,17,16.10
2015,04,19,13,18,16.10
2015,04,19,13,19,16.00
2015,04,19,13,20,16.00
2015,04,19,13,21,16.00
2015,04,19,13,22,16.10
2015,04,19,13,23,16.10
2015,04,19,13,24,16.10
2015,04,19,13,25,16.20
2015,04,19,13,26,16.30
2015,04,19,13,27,16.40
2015,04,19,13,28,16.50
2015,04,19,13,29,16.60
2015,04,19,13,30,16.70
2015,04,19,13,31,16.80
2015,04,19,13,32,16.80
2015,04,19,13,33,16.90
2015,04,19,13,34,16.90
2015,04,19,13,35,17.00
2015,04,19,13,36,17.00
2015,04,19,13,37,17.10
2015,04,19,13,38,17.10
2015,04,19,13,39,17.10
2015,04,19,13,40,17.10
2015,04,19,13,41,17.10
2015,04,19,13,42,17.10
2015,04,19,13,43,17.10
2015,04,19,13,44,17.20
2015,04,19,13,45,17.20
2015,04,19,13,46,17.20
2015,04,19,13,47,17.20
2015,04,19,13,48,17.20
2015,04,19,13,49,17.30
2015,04,19,13,50,17.30
2015,04,19,13,51,17.30
2015,04,19,13,52,17.30
2015,04,19,13,53,17.30
2015,04,19,13,54,17.30
2015,04,19,13,55,17.30
2015,04,19,13,56,17.40
2015,04,19,13,57,17.40
2015,04,19,13,58,17.40
2015,04,19,13,59,17.40
2015,04,19,14,00,17.50
2015,04,19,14,01,17.50
2015,04,19,14,02,17.60
2015,04,19,14,03,17.70
2015,04,19,14,04,17.70
2015,04,19,14,05,17.80
2015,04,19,14,06,17.80
2015,04,19,14,07,17.90
2015,04,19,14,08,17.90
2015,04,19,14,09,18.00
2015,04,19,14,10,18.10
2015,04,19,14,11,18.10
2015,04,19,14,12,18.20
2015,04,19,14,13,18.20
2015,04,19,14,14,18.10
2015,04,19,14,15,18.10
2015,04,19,14,16,18.10
2015,04,19,14,17,18.10
2015,04,19,14,18,18.20
2015,04,19,14,19,18.20
2015,04,19,14,20,18.20
2015,04,19,14,21,18.20
2015,04,19,14,22,18.20
2015,04,19,14,23,18.20
2015,04,19,14,24,18.20
2015,04,19,14,25,18.20
2015,04,19,14,26,18.20
2015,04,19,14,27,18.20
2015,04,19,14,28,18.20
2015,04,19,14,29,18.30
2015,04,19,14,30,18.30
2015,04,19,14,31,18.40
2015,04,19,14,32,18.50
2015,04,19,14,33,18.60
2015,04,19,14,34,18.70
2015,04,19,14,35,18.80
2015,04,19,14,36,18.90
2015,04,19,14,37,18.90
2015,04,19,14,38,19.00
2015,04,19,14,39,19.00
2015,04,19,14,40,19.00
2015,04,19,14,41,19.00
2015,04,19,14,42,19.00
2015,04,19,14,43,18.90
2015,04,19,14,44,18.90
2015,04,19,14,45,18.90
2015,04,19,14,46,18.90
2015,04,19,14,47,18.90
2015,04,19,14,48,19.00
2015,04,19,14,49,19.10
2015,04,19,14,50,19.10
2015,04,19,14,51,19.20
2015,04,19,14,52,19.20
2015,04,19,14,53,19.30
2015,04,19,14,54,19.40
2015,04,19,14,55,19.40
2015,04,19,14,56,19.50
2015,04,19,14,57,19.50
2015,04,19,14,58,19.50
2015,04,19,14,59,19.60
2015,04,19,15,00,19.60
2015,04,19,15,01,19.60
2015,04,19,15,02,19.50
2015,04,19,15,03,19.50
2015,04,19,15,04,19.40
2015,04,19,15,05,19.30
2015,04,19,15,06,19.30
2015,04,19,15,07,19.30
2015,04,19,15,08,19.30
2015,04,19,15,09,19.30
2015,04,19,15,10,19.30
2015,04,19,15,11,19.40
2015,04,19,15,12,19.40
2015,04,19,15,13,19.40
2015,04,19,15,14,19.40
2015,04,19,15,15,19.40
2015,04,19,15,16,19.40
2015,04,19,15,17,19.30
2015,04,19,15,18,19.30
2015,04,19,15,19,19.30
2015,04,19,15,20,19.20
2015,04,19,15,21,19.10
2015,04,19,15,22,19.10
2015,04,19,15,23,19.00
2015,04,19,15,24,18.90
2015,04,19,15,25,18.80
2015,04,19,15,26,18.60
2015,04,19,15,27,18.50
2015,04,19,15,28,18.30
2015,04,19,15,29,18.10
2015,04,19,15,30,18.00
2015,04,19,15,31,17.90
2015,04,19,15,32,17.80
2015,04,19,15,33,17.80
2015,04,19,15,34,17.80
2015,04,19,15,35,17.80
2015,04,19,15,36,17.80
2015,04,19,15,37,17.80
2015,04,19,15,38,17.80
2015,04,19,15,39,17.70
2015,04,19,15,40,17.70
2015,04,19,15,41,17.70
2015,04,19,15,42,17.80
2015,04,19,15,43,17.80
2015,04,19,15,44,18.00
2015,04,19,15,45,18.10
2015,04,19,15,46,18.20
2015,04,19,15,47,18.30
2015,04,19,15,48,18.40
2015,04,19,15,49,18.50
2015,04,19,15,50,18.60
2015,04,19,15,51,18.60
2015,04,19,15,52,18.60
2015,04,19,15,53,18.70
2015,04,19,15,54,18.70
2015,04,19,15,55,18.70
2015,04,19,15,56,18.70
2015,04,19,15,57,18.80
2015,04,19,15,58,18.80
2015,04,19,15,59,18.80
2015,04,19,16,00,18.90
2015,04,19,16,01,18.90
2015,04,19,16,02,19.00
2015,04,19,16,03,19.10
2015,04,19,16,04,19.20
2015,04,19,16,05,19.30
2015,04,19,16,06,19.40
2015,04,19,16,07,19.50
2015,04,19,16,08,19.60
2015,04,19,16,09,19.60
2015,04,19,16,10,19.60
2015,04,19,16,11,19.60
2015,04,19,16,12,19.60
2015,04,19,16,13,19.60
2015,04,19,16,14,19.70
2015,04,19,16,15,19.70
2015,04,19,16,16,19.70
2015,04,19,16,17,19.70
2015,04,19,16,18,19.70
2015,04,19,16,19,19.70
2015,04,19,16,20,19.70
2015,04,19,16,21,19.70
2015,04,19,16,22,19.70
2015,04,19,16,23,19.70
2015,04,19,16,24,19.70
2015,04,19,16,25,19.60
2015,04,19,16,26,19.50
2015,04,19,16,27,19.40
2015,04,19,16,28,19.30
2015,04,19,16,29,19.30
2015,04,19,16,30,19.30
2015,04,19,16,31,19.30
2015,04,19,16,32,19.50
2015,04,19,16,33,19.60
2015,04,19,16,34,19.60
2015,04,19,16,35,19.70
2015,04,19,16,36,19.80
2015,04,19,16,37,19.80
2015,04,19,16,38,19.90
2015,04,19,16,39,20.00
2015,04,19,16,40,20.10
2015,04,19,16,41,20.10
2015,04,19,16,42,20.20
2015,04,19,16,43,20.20
2015,04,19,16,44,20.20
2015,04,19,16,45,20.20
2015,04,19,16,46,20.20
2015,04,19,16,47,20.20
2015,04,19,16,48,20.20
2015,04,19,16,49,20.20
2015,04,19,16,50,20.20
2015,04,19,16,51,20.20
2015,04,19,16,52,20.20
2015,04,19,16,53,20.20
2015,04,19,16,54,20.20
2015,04,19,16,55,20.20
2015,04,19,16,56,20.20
2015,04,19,16,57,20.20
2015,04,19,16,58,20.20
2015,04,19,16,59,20.20
2015,04,19,17,00,20.20
2015,04,19,17,01,20.30
2015,04,19,17,02,20.30
2015,04,19,17,03,20.40
2015,04,19,17,04,20.40
2015,04,19,17,05,20.40
2015,04,19,17,06,20.40
2015,04,19,17,07,20.40
2015,04,19,17,08,20.40
2015,04,19,17,09,20.30
2015,04,19,17,10,20.30
2015,04,19,17,11,20.20
2015,04,19,17,12,20.00
2015,04,19,17,13,19.70
2015,04,19,17,14,19.50
2015,04,19,17,15,19.40
2015,04,19,17,16,19.30
2015,04,19,17,17,19.30
2015,04,19,17,18,19.20
2015,04,19,17,19,19.10
2015,04,19,17,20,18.90
2015,04,19,17,21,18.90
2015,04,19,17,22,18.80
2015,04,19,17,23,18.60
2015,04,19,17,24,18.50
2015,04,19,17,25,18.50
2015,04,19,17,26,18.30
2015,04,19,17,27,18.20
2015,04,19,17,28,18.10
2015,04,19,17,29,18.00
2015,04,19,17,30,17.90
2015,04,19,17,31,17.90
2015,04,19,17,32,17.80
2015,04,19,17,33,17.80
2015,04,19,17,34,17.70
2015,04,19,17,35,17.70
2015,04,19,17,36,17.60
2015,04,19,17,37,17.60
2015,04,19,17,38,17.70
2015,04,19,17,39,17.70
2015,04,19,17,40,17.80
2015,04,19,17,41,17.80
2015,04,19,17,42,17.80
2015,04,19,17,43,17.80